User: anonymous   Login
Location: Kawakawa
(35.3830°S, 174.0670°E)
Time: 08:26:00
(UTC+13:00)
Language:

A-11 Canister half - Orbit

View from above orbital plane
View from above orbital plane
View from above satellite
View from above satellite

Ground track
Ground track

The orbit data is extracted from the following two-line orbital elements,

1    53U 60009E   19339.44220144 -.00000039  00000-0  44170-3 0  9991
2    53  47.2738 140.3630 0097893 223.9448 135.3524 12.17233214644818
Epoch (UTC): 05 December 2019 10:36:46
Eccentricity: 0.0097893
inclination: 47.2738°
perigee height: 1526 km
apogee height: 1683 km
right ascension of ascending node: 140.3630°
argument of perigee: 223.9448°
revolutions per day: 12.17233214
mean anomaly at epoch: 135.3524°
orbit number at epoch: 64481

The dashed part of the orbit path shows where the satellite is in the earth's shadow,  

DLR